Weather History for Tallahassee, FL

Change the Weather History Date:

Friday, March 8, 2013

  Actual Average Record
Temperature  
Mean Temperature 53 °F 59 °F  
Max Temperature 75 °F 72 °F 88 °F (1951)
Min Temperature 31 °F 46 °F 25 °F (1971)
Degree Days  
Heating Degree Days 12    
Month to date heating degree days 135  
Since 1 July heating degree days 1113  
Cooling Degree Days 0    
Month to date cooling degree days 0  
Year to date cooling degree days 50  
Growing Degree Days 2 (Base 50)    
Moisture  
Dew Point 28 °F    
Average Humidity 50    
Maximum Humidity 89    
Minimum Humidity 11    
Precipitation  
Precipitation 0.00 in 0.21 in 4.86 in (1970)
Month to date precipitation 0.06 1.73  
Year to date precipitation 13.27 10.92  
Sea Level Pressure  
Sea Level Pressure 30.22 in    
Wind  
Wind Speed 2 mph (North)    
Max Wind Speed 12 mph    
Max Gust Speed 16 mph    
Visibility 9 miles    
Events      
T = Trace of Precipitation, MM = Missing Value Source: NWS Daily Summary

Daily Weather History Graph

Daily Weather History Graph

Search for Another Location

Airport:

Trip Planner

Search our weather history database for the weather conditions in past years. The results will help you decide how hot, cold, wet, or windy it might be!

Date:

Astronomy

Mar. 08, 2013 Rise Set
Actual Time 6:55 AM EST 6:41 PM EST
Civil Twilight 6:31 AM EST 7:05 PM EST
Nautical Twilight 6:03 AM EST 7:33 PM EST
Astronomical Twilight 5:35 AM EST 8:00 PM EST
Moon 4:27 AM EST (3/8) 3:45 PM EST (3/8)
Length of Visible Light 12h 33m
Length of Day
11h 45m
Waning Crescent, 12% of the Moon is Illuminated
Mar 8
Waning Crescent
Mar 11
New
Mar 19
First Quarter
Mar 27
Full
Apr 3
Last Quarter

Hourly Weather History & Observations

Time (EST) Temp. Windchill Dew Point Humidity Pressure Visibility Wind Dir Wind Speed Gust Speed Precip Events Conditions
12:53 AM 35.1 °F - 30.0 °F 82% 30.23 in 9.0 mi Calm Calm - N/A   Clear
1:53 AM 34.0 °F - 28.9 °F 82% 30.24 in 7.0 mi Calm Calm - N/A   Clear
2:53 AM 34.0 °F - 30.0 °F 85% 30.22 in 8.0 mi Calm Calm - N/A   Clear
3:53 AM 33.1 °F - 28.0 °F 82% 30.22 in 9.0 mi Calm Calm - N/A   Clear
4:53 AM 32.0 °F - 28.0 °F 85% 30.22 in 8.0 mi Calm Calm - N/A   Clear
5:53 AM 32.0 °F 28.7 °F 28.0 °F 85% 30.25 in 6.0 mi WSW 3.5 mph - N/A   Smoke
6:53 AM 30.9 °F - 27.0 °F 85% 30.24 in 6.0 mi Calm Calm - N/A   Smoke
7:53 AM 36.0 °F - 32.0 °F 86% 30.25 in 6.0 mi Calm Calm - N/A   Smoke
8:53 AM 50.0 °F - 35.1 °F 57% 30.27 in 6.0 mi North 4.6 mph - N/A   Smoke
9:53 AM 57.0 °F - 32.0 °F 39% 30.28 in 10.0 mi Calm Calm - N/A   Clear
10:53 AM 62.1 °F - 32.0 °F 32% 30.27 in 10.0 mi Calm Calm - N/A   Clear
11:53 AM 66.0 °F - 30.9 °F 27% 30.27 in 10.0 mi NW 8.1 mph 16.1 mph N/A   Clear
12:38 PM 68.0 °F - 30.2 °F 24% 30.24 in 10.0 mi NNE 6.9 mph - N/A   Partly Cloudy
12:53 PM 69.1 °F - 28.9 °F 22% 30.24 in 10.0 mi North 4.6 mph - N/A   Partly Cloudy
1:53 PM 72.0 °F - 26.1 °F 18% 30.20 in 10.0 mi North 8.1 mph - N/A   Partly Cloudy
2:53 PM 73.0 °F - 21.9 °F 15% 30.18 in 10.0 mi North 4.6 mph - N/A   Partly Cloudy
3:53 PM 75.0 °F - 17.1 °F 11% 30.17 in 10.0 mi North 5.8 mph - N/A   Partly Cloudy
4:53 PM 73.0 °F - 19.0 °F 13% 30.16 in 10.0 mi NE 4.6 mph - N/A   Partly Cloudy
5:53 PM 71.1 °F - 21.0 °F 15% 30.18 in 10.0 mi NNE 6.9 mph - N/A   Partly Cloudy
6:53 PM 66.0 °F - 24.1 °F 20% 30.20 in 10.0 mi North 3.5 mph - N/A   Clear
7:53 PM 62.1 °F - 26.1 °F 25% 30.20 in 10.0 mi North 3.5 mph - N/A   Clear
8:53 PM 53.1 °F - 32.0 °F 45% 30.22 in 10.0 mi Calm Calm - N/A   Clear
9:53 PM 52.0 °F - 33.1 °F 49% 30.22 in 10.0 mi Calm Calm - N/A   Clear
10:53 PM 48.9 °F - 33.1 °F 54% 30.22 in 10.0 mi Calm Calm - N/A   Clear
11:53 PM 48.0 °F - 33.1 °F 56% 30.22 in 10.0 mi Calm Calm - N/A   Clear